Gunnison, CO

8:10 AM MDT on September 21, 2019 (GMT -0600)
Gunnison County

Weather History for KGUC - July, 2019

Change the Weather History Date:

Tuesday, July 23, 2019

  Actual Average Record
Temperature  
Mean Temperature 65 °F -  
Max Temperature 82 °F 77 °F 88 °F (2018)
Min Temperature 48 °F 45 °F 39 °F (1996)
Growing Degree Days 15 (Base 50)    
Moisture  
Dew Point 47 °F    
Average Humidity 54    
Maximum Humidity 86    
Minimum Humidity 27    
Precipitation  
Precipitation 0.01 in - - ()
Sea Level Pressure  
Sea Level Pressure 30.24 in    
Wind  
Wind Speed 7 mph (NE)    
Max Wind Speed 22 mph    
Max Gust Speed 29 mph    
Visibility 10 miles    
Events Rain , Thunderstorm    
Averages and records for this station are not official NWS values.
T = Trace of Precipitation, MM = Missing Value Source: NWS Daily Summary

Daily Weather History Graph

Daily Weather History Graph

Search for Another Location

Airport or City:

Astronomy

Jul. 23, 2019 Rise Set
Actual Time 6:01 AM MDT 8:26 PM MDT
Civil Twilight 5:31 AM MDT 8:56 PM MDT
Nautical Twilight 4:54 AM MDT 9:33 PM MDT
Astronomical Twilight 4:12 AM MDT 10:14 PM MDT
Moon No Moon Rise 12:13 PM MDT (7/23)
Length of Visible Light 15h 24m
Length of Day
14h 24m
Waning Gibbous, 63% of the Moon is Illuminated
Jul 23
Waning Gibbous
Jul 24
Last Quarter
Jul 31
New
Aug 7
First Quarter
Aug 15
Full

Hourly Weather History & Observations

Time (MDT) Temp. Dew Point Humidity Pressure Visibility Wind Dir Wind Speed Gust Speed Precip Events Conditions
12:56 AM 55.9 °F 46.0 °F 69% 30.25 in 10.0 mi North 8.1 mph - N/A   Clear
1:56 AM 54.0 °F 45.0 °F 72% 30.24 in 10.0 mi North 11.5 mph - N/A   Clear
2:56 AM 53.1 °F 45.0 °F 74% 30.25 in 10.0 mi NNE 6.9 mph - N/A   Clear
3:56 AM 53.1 °F 44.1 °F 71% 30.24 in 10.0 mi NNE 4.6 mph - N/A   Clear
4:56 AM 48.9 °F 44.1 °F 83% 30.29 in 10.0 mi Calm Calm - N/A   Clear
5:56 AM 48.0 °F 44.1 °F 86% 30.33 in 10.0 mi East 4.6 mph - N/A   Clear
6:56 AM 48.9 °F 43.0 °F 80% 30.32 in 10.0 mi NNW 3.5 mph - N/A   Clear
7:56 AM 55.0 °F 44.1 °F 67% 30.33 in 10.0 mi Calm Calm - N/A   Clear
8:56 AM 60.1 °F 45.0 °F 57% 30.30 in 10.0 mi Calm Calm - N/A   Clear
9:56 AM 64.0 °F 46.0 °F 52% 30.27 in 10.0 mi Calm Calm - N/A   Clear
10:56 AM 68.0 °F 46.9 °F 47% 30.25 in 10.0 mi WSW 3.5 mph - N/A   Clear
11:56 AM 73.0 °F 46.0 °F 38% 30.23 in 10.0 mi West 5.8 mph - N/A   Clear
12:56 PM 75.9 °F 46.9 °F 36% 30.20 in 10.0 mi SW 4.6 mph - N/A   Clear
1:56 PM 80.1 °F 46.0 °F 30% 30.15 in 10.0 mi SSW 5.8 mph - N/A   Clear
2:56 PM 82.9 °F 46.0 °F 27% 30.11 in 10.0 mi SW 12.7 mph 19.6 mph N/A   Scattered Clouds
3:56 PM 82.9 °F 46.0 °F 27% 30.09 in 10.0 mi WSW 6.9 mph - N/A   Clear
4:56 PM 78.1 °F 48.0 °F 35% 30.11 in 10.0 mi East 17.3 mph 27.6 mph N/A   Partly Cloudy
5:38 PM 78.8 °F 48.2 °F 34% 30.36 in 10.0 mi ESE 12.7 mph 20.7 mph N/A Thunderstorm Thunderstorm
5:56 PM 78.1 °F 46.9 °F 33% 30.11 in 10.0 mi ESE 15.0 mph 23.0 mph N/A   Partly Cloudy
6:12 PM 77.0 °F 48.2 °F 36% 30.36 in 10.0 mi East 21.9 mph 27.6 mph N/A Thunderstorm Thunderstorm
6:16 PM 77.0 °F 48.2 °F 36% 30.36 in 10.0 mi East 21.9 mph 28.8 mph N/A Thunderstorm Thunderstorm
6:56 PM 66.9 °F 51.1 °F 57% 30.18 in 10.0 mi SE 15.0 mph - 0.01 in Rain Light Rain
7:56 PM 69.1 °F 51.1 °F 53% 30.19 in 10.0 mi NE 4.6 mph - 0.00 in   Mostly Cloudy
8:56 PM 66.0 °F 52.0 °F 60% 30.22 in 10.0 mi Calm Calm - N/A   Overcast
9:56 PM 64.9 °F 51.1 °F 61% 30.25 in 10.0 mi NW 3.5 mph - N/A   Mostly Cloudy
10:56 PM 62.1 °F 52.0 °F 70% 30.26 in 10.0 mi Calm Calm - N/A   Overcast
11:56 PM 61.0 °F 48.9 °F 64% 30.24 in 10.0 mi NNW 4.6 mph - N/A   Clear